Ono, PA

8:26 AM EST on February 11, 2016 (GMT -0500)
Muir Army Air Field

Weather History for KMUI - December, 2013

Change the Weather History Date:

Thursday, December 26, 2013

  Actual Average Record
Temperature  
Mean Temperature 26 °F -  
Max Temperature 35 °F 35 °F 55 °F (2015)
Min Temperature 18 °F 25 °F 18 °F (2013)
Degree Days  
Heating Degree Days 38    
Moisture  
Dew Point 24 °F    
Average Humidity 95    
Maximum Humidity 100    
Minimum Humidity 61    
Precipitation  
Precipitation 0.06 in - - ()
Sea Level Pressure  
Sea Level Pressure 30.26 in    
Wind  
Wind Speed 2 mph (North)    
Max Wind Speed 10 mph    
Max Gust Speed -    
Visibility 7 miles    
Events Rain , Snow    
Averages and records for this station are not official NWS values.
T = Trace of Precipitation, MM = Missing Value Source: NWS Daily Summary

Daily Weather History Graph

Daily Weather History Graph

Search for Another Location

Airport or City:

Trip Planner

Search our weather history database for the weather conditions in past years. The results will help you decide how hot, cold, wet, or windy it might be!

Date:

Astronomy

Dec. 26, 2013 Rise Set
Actual Time 7:28 AM EST 4:46 PM EST
Civil Twilight 6:57 AM EST 5:16 PM EST
Nautical Twilight 6:23 AM EST 5:51 PM EST
Astronomical Twilight 5:49 AM EST 6:24 PM EST
Moon 12:53 AM EST (12/26) 12:21 PM EST (12/26)
Length of Visible Light 10h 19m
Length of Day
9h 17m
Last Quarter, 38% of the Moon is Illuminated
Dec 26
Last Quarter
Jan 1
New
Jan 7
First Quarter
Jan 15
Full
Jan 24
Last Quarter

Hourly Weather History & Observations

Time (EST) Temp. Windchill Dew Point Humidity Pressure Visibility Wind Dir Wind Speed Gust Speed Precip Events Conditions
12:58 AM 19.4 °F - 19.0 °F 98% 30.38 in 10.0 mi NNE 2.3 mph - N/A   Partly Cloudy
1:58 AM 19.0 °F - 18.5 °F 98% 30.36 in 10.0 mi East 2.3 mph - N/A   Clear
2:58 AM 18.1 °F - 18.0 °F 99% 30.37 in 10.0 mi North 2.3 mph - N/A   Mostly Cloudy
3:58 AM 21.6 °F - 21.4 °F 99% 30.33 in 10.0 mi ENE 2.3 mph - N/A   Overcast
4:58 AM 23.0 °F - 22.1 °F 96% 30.31 in 10.0 mi NE 2.3 mph - N/A   Mostly Cloudy
5:56 AM 23.0 °F - 23.0 °F 100% 30.27 in 10.0 mi NE 1.2 mph - N/A   Overcast
5:58 AM 23.5 °F - 22.6 °F 96% 30.30 in 10.0 mi NE 1.2 mph - N/A   Overcast
6:12 AM 23.0 °F - 23.0 °F 100% 30.27 in 10.0 mi North 1.2 mph - N/A   Mostly Cloudy
6:24 AM 23.0 °F - 23.0 °F 100% 30.27 in 4.0 mi North 1.2 mph - N/A Snow Light Snow
6:36 AM 23.0 °F - 23.0 °F 100% 30.27 in 2.5 mi East 1.2 mph - N/A Snow Light Snow
6:42 AM 23.0 °F - 23.0 °F 100% 30.27 in 2.0 mi Calm Calm - N/A Snow Light Snow
6:58 AM 23.0 °F - 23.0 °F 100% 30.30 in 1.8 mi NNE 2.3 mph - 0.00 in Snow Light Snow
7:02 AM 23.0 °F - 23.0 °F 100% 30.27 in 1.5 mi NNE 1.2 mph - N/A Snow Light Snow
7:24 AM 23.0 °F - 23.0 °F 100% 30.26 in 1.8 mi NE 2.3 mph - N/A Snow Light Snow
7:26 AM 23.0 °F - 23.0 °F 100% 30.26 in 1.5 mi NE 2.3 mph - N/A Snow Light Snow
7:27 AM 23.0 °F - 23.0 °F 100% 30.26 in 1.2 mi NNE 1.2 mph - N/A Snow Light Snow
7:29 AM 23.0 °F - 23.0 °F 100% 30.26 in 1.0 mi NNE 1.2 mph - N/A Snow Light Snow
7:31 AM 23.0 °F - 23.0 °F 100% 30.26 in 0.8 mi NNE 1.2 mph - N/A Snow Light Snow
7:35 AM 23.0 °F - 23.0 °F 100% 30.26 in 0.8 mi ENE 1.2 mph - N/A Snow Light Snow
7:38 AM 23.0 °F - 23.0 °F 100% 30.26 in 0.8 mi NE 1.2 mph - N/A Snow Light Snow
7:58 AM 23.0 °F - 23.0 °F 100% 30.28 in 0.8 mi Calm Calm - 0.04 in Snow Light Snow
8:10 AM 23.0 °F - 23.0 °F 100% 30.25 in 1.0 mi Calm Calm - N/A Snow Light Snow
8:20 AM 23.0 °F - 23.0 °F 100% 30.25 in 0.8 mi NNE 1.2 mph - N/A Snow Light Snow
8:24 AM 23.0 °F - 23.0 °F 100% 30.25 in 0.8 mi North 1.2 mph - N/A Snow Light Snow
8:28 AM 23.0 °F - 23.0 °F 100% 30.25 in 1.0 mi Calm Calm - N/A Snow Light Snow
8:32 AM 23.0 °F - 23.0 °F 100% 30.24 in 1.2 mi NNE 2.3 mph - N/A Snow Light Snow
8:34 AM 23.0 °F - 23.0 °F 100% 30.24 in 1.5 mi Calm Calm - N/A Snow Light Snow
8:36 AM 23.0 °F - 23.0 °F 100% 30.25 in 1.8 mi Calm Calm - N/A Snow Light Snow
8:38 AM 23.0 °F - 23.0 °F 100% 30.24 in 2.0 mi NNE 1.2 mph - N/A Snow Light Snow
8:40 AM 23.0 °F - 23.0 °F 100% 30.24 in 2.5 mi North 1.2 mph - N/A Snow Light Snow
8:44 AM 23.0 °F - 23.0 °F 100% 30.25 in 3.0 mi NNE 1.2 mph - N/A Snow Light Snow
8:56 AM 23.0 °F - 23.0 °F 100% 30.24 in 7.0 mi North 1.2 mph - N/A   Overcast
8:57 AM 23.0 °F - 23.0 °F 100% 30.24 in 7.0 mi North 1.2 mph - N/A   Overcast
8:58 AM 23.0 °F - 23.0 °F 100% 30.27 in 7.0 mi North 1.2 mph - 0.02 in   Overcast
9:08 AM 24.8 °F - 24.8 °F 100% 30.25 in 6.0 mi North 2.3 mph - N/A   Overcast
9:09 AM 24.8 °F - 24.8 °F 100% 30.25 in 6.0 mi North 2.3 mph - N/A Snow Light Snow
9:17 AM 24.8 °F - 24.8 °F 100% 30.25 in 9.0 mi Calm Calm - N/A   Overcast
9:21 AM 24.8 °F - 24.8 °F 100% 30.25 in 9.0 mi Calm Calm - N/A   Overcast
9:23 AM 24.8 °F - 24.8 °F 100% 30.25 in 10.0 mi NNE 1.2 mph - N/A   Overcast
9:58 AM 24.8 °F - 24.8 °F 100% 30.28 in 10.0 mi Calm Calm - 0.00 in   Overcast
10:58 AM 26.1 °F - 26.1 °F 100% 30.27 in 10.0 mi Calm Calm - N/A   Overcast
11:30 AM 26.6 °F - 26.6 °F 100% 30.22 in 10.0 mi West 1.2 mph - N/A   Overcast
11:58 AM 26.8 °F 20.2 °F 26.8 °F 100% 30.24 in 10.0 mi WSW 5.8 mph - N/A   Mostly Cloudy
12:00 PM 26.6 °F 20.0 °F 26.6 °F 100% 30.21 in 10.0 mi WSW 5.8 mph - N/A   Mostly Cloudy
12:28 PM 28.4 °F 22.2 °F 28.4 °F 100% 30.21 in 10.0 mi SW 5.8 mph - N/A   Scattered Clouds
12:58 PM 29.5 °F 24.5 °F 29.3 °F 99% 30.23 in 10.0 mi SW 4.6 mph - N/A   Clear
1:04 PM 30.2 °F 23.4 °F 30.2 °F 100% 30.20 in 7.0 mi SSW 6.9 mph - N/A   Light Freezing Rain
1:09 PM 32.0 °F 26.4 °F 30.2 °F 93% 30.20 in 10.0 mi WSW 5.8 mph - N/A   Partly Cloudy
1:58 PM 33.1 °F 24.9 °F 28.6 °F 84% 30.22 in 10.0 mi SSW 10.4 mph - 0.00 in   Light Drizzle
2:01 PM 32.0 °F 23.6 °F 28.4 °F 87% 30.20 in 10.0 mi SW 10.4 mph - N/A   Clear
2:58 PM 35.1 °F 27.4 °F 29.3 °F 80% 30.23 in 6.0 mi SW 10.4 mph - 0.00 in   Haze
3:24 PM 35.6 °F 30.7 °F 28.4 °F 75% 30.20 in 10.0 mi SW 5.8 mph - N/A Rain Light Rain
3:28 PM 35.6 °F 29.2 °F 30.2 °F 81% 30.21 in 10.0 mi SW 8.1 mph - N/A   Mostly Cloudy
3:58 PM 34.0 °F 28.0 °F 30.0 °F 85% 30.24 in 10.0 mi SSW 6.9 mph - 0.00 in   Mostly Cloudy
4:58 PM 31.1 °F - 30.7 °F 99% 30.26 in 10.0 mi NW 2.3 mph - N/A   Partly Cloudy
5:58 PM 28.6 °F 23.5 °F 28.4 °F 99% 30.29 in 10.0 mi SE 4.6 mph - N/A   Scattered Clouds
6:58 PM 33.8 °F 29.6 °F 21.7 °F 61% 30.30 in 10.0 mi WNW 4.6 mph - N/A   Clear
7:20 PM 32.0 °F 26.4 °F 21.2 °F 64% 30.27 in 10.0 mi WNW 5.8 mph - N/A   Clear
7:29 PM 32.0 °F 25.6 °F 21.2 °F 64% 30.27 in 10.0 mi WNW 6.9 mph - N/A   Clear
7:58 PM 32.7 °F 27.3 °F 21.2 °F 63% 30.31 in 10.0 mi West 5.8 mph - 0.00 in   Clear
8:58 PM 30.6 °F - 20.7 °F 67% 30.31 in 10.0 mi SW 2.3 mph - N/A   Clear
9:58 PM 23.2 °F - 22.8 °F 99% 30.32 in 10.0 mi SE 1.2 mph - N/A   Clear
10:58 PM 22.6 °F - 22.3 °F 99% 30.33 in 10.0 mi Calm Calm - N/A   Clear
11:58 PM 19.6 °F - 19.4 °F 99% 30.35 in 10.0 mi West 2.3 mph - N/A   Partly Cloudy